Location: Unspecified
(51.0000°N, 12.0000°E)
Time: 04:24:45
(UTC+02:00)

OTV 5 (USA 277) - Pass Details

Date: 25 April 2019
Orbit: 310 x 325 km, 54.5° (Epoch: 08 May)

Event Time Altitude Azimuth Distance (km) Brightness Sun altitude
Rises 21:50:39 0° 236° (SW) 2,030 ? -12.5°
Reaches altitude 10° 21:52:37 10° 232° (SW) 1,204 ? -12.7°
Maximum altitude 21:55:15 60° 151° (SSE) 362 ? -13.0°
Enters shadow 21:57:15 16° 73° (ENE) 943 ? -13.3°
